User: anonymous   Login
Location: ????????
(55.0097°N, 38.5678°E)
Time: 21:56:15
(UTC+00:00)
Language:

ALOS - Orbit

View from above orbital plane
View from above orbital plane
View from above satellite
View from above satellite

Ground track
Ground track

The orbit data is extracted from the following two-line orbital elements,

1 28931U 06002A   24170.59054753  .00001908  00000-0  35800-3 0  9990
2 28931  98.0363 123.6185 0002385 106.3923 253.7543 14.65840437981180
Epoch (UTC): 18 June 2024 14:10:23
Eccentricity: 0.0002385
inclination: 98.0363°
perigee height: 673 km
apogee height: 676 km
right ascension of ascending node: 123.6185°
argument of perigee: 106.3923°
revolutions per day: 14.65840437
mean anomaly at epoch: 253.7543°
orbit number at epoch: 98118

The dashed part of the orbit path shows where the satellite is in the earth's shadow,  

DLR